Date String (YYYY-MM-DD hh:mm:ss) UTC,Instrument flags,absolute air pressure of the measurement (hPa),sample flow rate (lpm),inlet stack bypass flow (lpm),air temperature of the measurement (°C),ambient temperature measured by the external sensor (°C),aerosol sample conditioner tube jacket temperature (°C),OPC LED temperature (°C),internal box temperature (°C),relative humidity of the measurement (%),span deviation,mass concentration of particles derived from Lorenz-Mie calculation of OPC scattering (μg/m³),mass concentration of particles derived from Lorenz-Mie calculation of OPC scattering (μg/m³),mass concentration of particles derived from Lorenz-Mie calculation of OPC scattering (μg/m³)
DateTimeUTC,F1_M11,P_M11,Q1_M11,Q2_M11,T1_M11,T2_M11,T3_M11,T4_M11,T5_M11,U1_M11,ZSPAN_M11,X0_M11,X2_M11,X1_M11
2024-02-01 13:00:00,SystemResetWarning,0824.9,4.99,000.00,023.8,022.9,000.0,032.2,025.5,11.9,0000.0,0002.12,0001.09,0001.02
2024-02-01 13:01:00,SystemResetWarning,0824.9,4.99,000.00,023.8,022.9,000.0,032.2,025.5,11.8,0000.0,0002.14,0001.10,0001.03
2024-02-01 13:02:00,SystemResetWarning,0824.8,5.00,000.00,023.8,022.9,000.0,032.2,025.5,11.8,0000.0,0002.03,0001.09,0001.03
2024-02-01 13:03:00,SystemResetWarning,0824.8,5.00,000.00,023.7,022.9,000.0,032.2,025.5,11.8,0000.0,0002.16,0001.12,0001.03
2024-02-01 13:04:00,SystemResetWarning,0824.8,5.00,000.00,023.7,022.9,000.0,032.2,025.5,11.9,0000.0,0002.86,0001.14,0001.04
2024-02-01 13:05:00,SystemResetWarning,0824.7,5.00,000.00,023.7,022.9,000.0,032.2,025.5,11.8,0000.0,0002.94,0001.14,0001.05
2024-02-01 13:06:00,SystemResetWarning,0824.7,5.00,000.00,023.7,022.9,000.0,032.2,025.5,11.8,0000.0,0003.51,0001.18,0001.07
2024-02-01 13:07:00,SystemResetWarning,0824.8,5.01,000.00,023.7,022.9,000.0,032.2,025.5,11.8,0000.0,0003.60,0001.20,0001.09
2024-02-01 13:08:00,SystemResetWarning,0824.8,5.00,000.00,023.7,022.9,000.0,032.1,025.5,11.8,0000.0,0003.61,0001.22,0001.10
2024-02-01 13:09:00,SystemResetWarning,0824.7,5.00,000.00,023.7,022.9,000.0,032.2,025.5,11.8,0000.0,0003.45,0001.25,0001.13
2024-02-01 13:10:00,SystemResetWarning,0824.7,4.99,000.00,023.7,022.9,000.0,032.1,025.5,11.8,0000.0,0003.03,0001.28,0001.15
2024-02-01 13:11:00,SystemResetWarning,0824.8,4.99,000.00,023.7,022.9,000.0,032.1,025.5,11.9,0000.0,0002.94,0001.30,0001.18
2024-02-01 13:12:00,SystemResetWarning,0824.7,5.00,000.00,023.7,022.9,000.0,032.1,025.4,12.1,0000.0,0002.99,0001.31,0001.20
2024-02-01 13:13:00,SystemResetWarning,0824.7,5.00,000.00,023.7,022.9,000.0,032.1,025.4,12.0,0000.0,0003.58,0001.34,0001.21
2024-02-01 13:14:00,SystemResetWarning,0824.7,5.01,000.00,023.7,022.9,000.0,032.1,025.4,12.0,0000.0,0003.49,0001.35,0001.23
2024-02-01 13:15:00,SystemResetWarning,0824.7,5.00,000.00,023.7,022.9,000.0,032.1,025.4,12.0,0000.0,0002.84,0001.36,0001.24
2024-02-01 13:16:00,SystemResetWarning,0824.7,5.00,000.00,023.7,022.9,000.0,032.1,025.5,12.1,0000.0,0002.76,0001.36,0001.26
2024-02-01 13:17:00,SystemResetWarning,0824.7,5.01,000.00,023.7,023.0,000.0,032.1,025.5,12.0,0000.0,0002.38,0001.36,0001.26
2024-02-01 13:18:00,SystemResetWarning,0824.7,5.00,000.00,023.7,023.0,000.0,032.1,025.5,12.0,0000.0,0002.31,0001.36,0001.27
2024-02-01 13:19:00,SystemResetWarning,0824.7,5.00,000.00,023.7,023.0,000.0,032.1,025.5,11.8,0000.0,0002.51,0001.37,0001.27
2024-02-01 13:20:00,SystemResetWarning,0824.8,4.99,000.00,023.7,023.0,000.0,032.1,025.5,11.8,0000.0,0002.48,0001.35,0001.27
2024-02-01 13:21:00,SystemResetWarning,0824.8,5.01,000.00,023.7,023.0,000.0,032.1,025.5,11.9,0000.0,0002.44,0001.33,0001.26
2024-02-01 13:22:00,SystemResetWarning,0824.7,5.01,000.00,023.7,023.0,000.0,032.1,025.5,11.8,0000.0,0002.44,0001.33,0001.26
2024-02-01 13:23:00,SystemResetWarning,0824.8,4.99,000.00,023.7,022.9,000.0,032.1,025.4,11.8,0000.0,0002.48,0001.35,0001.27
2024-02-01 13:24:00,SystemResetWarning,0824.8,5.00,000.00,023.7,022.9,000.0,032.1,025.4,11.8,0000.0,0001.94,0001.35,0001.27
2024-02-01 13:25:00,SystemResetWarning,0824.8,5.00,000.00,023.7,022.9,000.0,032.1,025.4,11.8,0000.0,0001.91,0001.36,0001.30
2024-02-01 13:26:00,SystemResetWarning,0824.8,5.00,000.00,023.7,022.9,000.0,032.1,025.4,11.8,0000.0,0001.98,0001.38,0001.31
2024-02-01 13:27:00,SystemResetWarning,0824.7,5.00,000.00,023.7,022.9,000.0,032.1,025.4,11.9,0000.0,0002.12,0001.43,0001.32
2024-02-01 13:28:00,SystemResetWarning,0824.8,5.00,000.00,023.7,022.9,000.0,032.1,025.4,11.7,0000.0,0002.00,0001.45,0001.33
2024-02-01 13:29:00,SystemResetWarning,0824.8,5.01,000.00,023.7,022.9,000.0,032.1,025.4,11.8,0000.0,0002.11,0001.49,0001.35
2024-02-01 13:30:00,SystemResetWarning,0824.7,5.01,000.00,023.7,022.9,000.0,032.0,025.4,11.9,0000.0,0002.00,0001.53,0001.37
2024-02-01 13:31:00,SystemResetWarning,0824.7,5.00,000.00,023.7,022.9,000.0,032.0,025.4,11.9,0000.0,0001.98,0001.56,0001.40
2024-02-01 13:32:00,SystemResetWarning,0824.7,4.98,000.00,023.7,022.9,000.0,032.0,025.3,11.8,0000.0,0002.02,0001.59,0001.43
2024-02-01 13:33:00,SystemResetWarning,0824.8,4.99,000.00,023.7,022.9,000.0,032.0,025.4,11.8,0000.0,0002.03,0001.61,0001.45
2024-02-01 13:34:00,SystemResetWarning,0824.7,5.02,000.00,023.7,022.9,000.0,032.0,025.4,11.8,0000.0,0002.01,0001.61,0001.47
2024-02-01 13:35:00,SystemResetWarning,0824.8,5.00,000.00,023.7,022.9,000.0,032.0,025.4,11.8,0000.0,0001.99,0001.62,0001.48
2024-02-01 13:36:00,SystemResetWarning,0824.8,4.99,000.00,023.6,022.9,000.0,032.0,025.4,11.7,0000.0,0002.87,0001.63,0001.49
2024-02-01 13:37:00,SystemResetWarning,0824.7,5.00,000.00,023.6,022.9,000.0,032.0,025.4,11.7,0000.0,0003.19,0001.63,0001.50
2024-02-01 13:38:00,SystemResetWarning,0824.7,5.01,000.00,023.6,022.9,000.0,032.0,025.3,11.7,0000.0,0003.11,0001.62,0001.52
2024-02-01 13:39:00,SystemResetWarning,0824.7,5.01,000.00,023.6,022.8,000.0,032.0,025.3,11.8,0000.0,0003.13,0001.63,0001.54
2024-02-01 13:40:00,SystemResetWarning,0824.7,5.00,000.00,023.6,022.8,000.0,032.0,025.3,11.8,0000.0,0003.19,0001.66,0001.57
2024-02-01 13:41:00,SystemResetWarning,0824.7,4.99,000.00,023.6,022.8,000.0,032.0,025.3,11.8,0000.0,0003.15,0001.64,0001.57
2024-02-01 13:42:00,SystemResetWarning,0824.7,4.99,000.00,023.6,022.8,000.0,032.0,025.3,11.8,0000.0,0003.18,0001.65,0001.57
2024-02-01 13:43:00,SystemResetWarning,0824.8,5.01,000.00,023.6,022.8,000.0,032.0,025.2,11.9,0000.0,0003.30,0001.67,0001.58
2024-02-01 13:44:00,SystemResetWarning,0824.8,5.00,000.00,023.6,022.8,000.0,032.0,025.2,11.9,0000.0,0003.41,0001.71,0001.60
2024-02-01 13:45:00,SystemResetWarning,0824.7,5.00,000.00,023.6,022.8,000.0,032.0,025.2,11.9,0000.0,0003.42,0001.73,0001.62
2024-02-01 13:46:00,SystemResetWarning,0824.7,5.00,000.00,023.6,022.8,000.0,031.9,025.2,12.0,0000.0,0003.68,0001.77,0001.64
2024-02-01 13:47:00,SystemResetWarning,0824.7,5.01,000.00,023.6,022.8,000.0,031.9,025.2,12.0,0000.0,0003.50,0001.81,0001.66
2024-02-01 13:48:00,SystemResetWarning,0824.7,5.00,000.00,023.5,022.8,000.0,031.9,025.2,12.1,0000.0,0003.24,0001.89,0001.71
2024-02-01 13:49:00,SystemResetWarning,0824.8,5.00,000.00,023.5,022.8,000.0,031.9,025.3,12.1,0000.0,0003.33,0001.93,0001.74
2024-02-01 13:50:00,SystemResetWarning,0824.8,5.00,000.00,023.5,022.8,000.0,031.9,025.3,12.1,0000.0,0003.37,0001.96,0001.76
2024-02-01 13:51:00,SystemResetWarning,0824.8,4.99,000.00,023.5,022.8,000.0,031.9,025.2,12.2,0000.0,0003.28,0001.96,0001.77
2024-02-01 13:52:00,SystemResetWarning,0824.8,4.99,000.00,023.5,022.8,000.0,031.9,025.2,12.2,0000.0,0003.32,0001.98,0001.79
2024-02-01 13:53:00,SystemResetWarning,0824.8,5.01,000.00,023.5,022.8,000.0,031.9,025.2,12.3,0000.0,0003.38,0002.01,0001.80
2024-02-01 13:54:00,SystemResetWarning,0824.8,5.01,000.00,023.5,022.8,000.0,031.9,025.2,12.1,0000.0,0003.36,0002.05,0001.84
2024-02-01 13:55:00,SystemResetWarning,0824.8,5.00,000.00,023.5,022.8,000.0,031.9,025.2,12.0,0000.0,0003.32,0002.07,0001.88
2024-02-01 13:56:00,SystemResetWarning,0824.8,4.98,000.00,023.5,022.8,000.0,031.9,025.2,12.0,0000.0,0003.43,0002.15,0001.94
2024-02-01 13:57:00,SystemResetWarning,0824.8,5.01,000.00,023.5,022.8,000.0,031.9,025.2,12.0,0000.0,0003.50,0002.23,0002.00
2024-02-01 13:58:00,SystemResetWarning,0824.8,5.01,000.00,023.5,022.8,000.0,031.9,025.2,12.1,0000.0,0003.23,0002.29,0002.05
2024-02-01 13:59:00,SystemResetWarning,0824.8,5.00,000.00,023.5,022.8,000.0,031.9,025.2,12.1,0000.0,0003.09,0002.29,0002.06
